Weather in Yamaguchi

Japan     34°06′34″N   131°33′18″E
temp.,
°C
wind,
m/s
gust,
m/s
humid.,
%
clouds,
%
prec.,
mm/h
press.,
hPa
HPBL,
m
19 april, mon
mon1900:00+9nnw12668 0.0 1017210
03:00+9wnw12650 0.0 1017236
06:00+9nw22680 0.0 1018182
09:00+11wsw23600 0.0 1018375
12:00+13sw35591 0.0 1017558
15:00+17w57450 0.0 1016533
18:00+15wnw57560 0.0 1017191
21:00+12nnw33640 0.0 101886
20 april, tue
tue2000:00+11nnw22610 0.0 101987
03:00+10nnw22610 0.0 101988
06:00+10n22635 0.0 102080
09:00+14w12565 0.0 1021227
12:00+15ssw33571 0.0 1021429
15:00+17sw33575 0.0 1019321
18:00+17nw336360 0.0 102021
21:00+13n34712 0.0 102264
21 april, wed
wed2100:00+13n23701 0.0 102366
03:00+13n22684 0.0 102257
06:00+12nne11694 0.0 102353
09:00+16sse11630 0.0 1024161
12:00+16s21640 0.0 1023264
15:00+18se22566 0.0 1021189
18:00+18ese126295 0.0 102115
21:00+16ene226711 0.0 102212
22 april, thu
thu2200:00+15e347363 0.0 102242
03:00+14e3471100 0.0 102165
06:00+14e457195 0.0 102291
09:00+16ese45635 0.0 1022206
12:00+17se455922 0.0 1020269
15:00+17ese565793 0.0 1018223
18:00+16ese587071 0.0 1018112
21:00+15ene457234 0.0 101962
23 april, fri
fri2300:00+15ene5772100 0.0 101888
03:00+15e5778100 0.0 1017119
06:00+15e4679100 0.0 1017106
09:00+16ese4570100 0.0 1018190
12:00+17se4661100 0.0 1018330
15:00+17ese61060100 0.0 1017385
18:00+17ese71268100 0.0 1017375
21:00+16e5769100 0.0 1018120